Location: Grand Lay
(47.3253°N, 0.9468°E)
Time: 09:41:43
(UTC+00:00)

ARIANE 5 R/B - Pass Details

Date: 18 January 2026
Orbit: 746 x 793 km, 98.8° (Epoch: 19 February)

Event Time Altitude Azimuth Distance (km) Brightness Sun altitude
Rises 06:33:19 0° 16° (NNE) 3,264 5.7 -10.6°
Reaches altitude 10° 06:35:40 10° 19° (NNE) 2,325 5.0 -10.2°
Maximum altitude 06:40:46 68° 103° (ESE) 823 2.9 -9.4°
Drops below altitude 10° 06:45:46 10° 186° (S) 2,278 5.2 -8.6°
Sets 06:48:03 0° 189° (S) 3,193 5.9 -8.3°
